Weather observations for the past three days for
Nome, Nome Airport
Imperial (Metric)
Date Time (akdt) Wind (mph) Vis. (mi.) Weather Sky Cond. Temperature (ºF) Relative Humidity Wind Chill (°F) Heat Index (°F) Pressure Precipitation (in)
Air Dwpt 6 hour altimeter (in) sea level (mb) 1 hr 3 hr 6 hr
Max. Min.
10 12:53 N 13 10.00 Overcast OVC022 37 30 76% 30 29.48 998.3
10 11:53 NW 5 10.00 Overcast OVC022 36 30.9 82% 33 29.48 998.4
10 10:53 NW 7 9.00 Light Snow OVC020 35.1 30 82% 30 29.48 998.3
10 09:53 N 7 8.00 Light Snow OVC022 35.1 30 36 27 82% 30 29.48 998.4
10 08:53 N 3 10.00 Overcast SCT034 OVC044 34 23 64% 29.48 998.3
10 07:53 NW 8 10.00 Overcast SCT041 BKN070 OVC085 30.9 23 72% 24 29.48 998.3
10 06:53 N 8 10.00 Overcast FEW055 FEW080 OVC100 30.9 21.9 69% 24 29.49 998.7
10 05:53 NW 9 10.00 Overcast FEW041 SCT070 OVC110 30 19.9 66% 22 29.5 999.0
10 04:53 NW 9 10.00 Overcast FEW050 BKN075 OVC100 28.9 21 72% 21 29.5 999.1
10 03:53 N 7 10.00 Fair CLR 28.9 19.9 37.9 28 69% 23 29.52 999.5
10 02:53 N 9 10.00 Fair CLR 28.9 21 72% 21 29.52 999.8
10 01:53 N 6 10.00 Fair CLR 30 23 75% 25 29.52 999.7
10 00:53 NW 7 10.00 Fair CLR 30 21.9 72% 24 29.52 999.7
09 23:53 E 7 10.00 Fair CLR 33.1 24.1 70% 28 29.53 1000.0
09 22:53 Calm 10.00 A Few Clouds FEW110 35.1 26.1 70% 29.52 999.7
09 21:53 SW 6 10.00 Fair CLR 37.9 21.9 42.1 36 52% 34 29.52 999.5
09 20:53 S 7 10.00 Fair CLR 39 23 53% 35 29.51 999.4
09 19:53 SW 8 10.00 Fair CLR 39 24.1 55% 34 29.52 999.7
09 18:53 SW 7 10.00 Fair CLR 37.9 26.1 62% 33 29.53 1000.0
09 17:53 SW 7 10.00 Fair CLR 39.9 25 55% 36 29.53 1000.0
09 16:53 Vrbl 6 10.00 Fair CLR 41 23 49% 38 29.55 1000.6
09 15:53 NE 7 10.00 Fair CLR 39.9 21.9 41 33.1 49% 36 29.56 1000.9
09 14:53 NE 13 10.00 Fair CLR 39.9 23 51% 33 29.57 1001.4
09 13:53 N 12 10.00 Fair CLR 39 23 53% 32 29.58 1001.8
09 12:53 N 12 10.00 Fair CLR 37.9 21 51% 31 29.59 1002.1
09 11:53 N 8 10.00 Fair CLR 37 19 48% 32 29.6 1002.5
09 10:53 NW 8 10.00 Fair CLR 34 18 52% 28 29.62 1003.2
09 09:53 Vrbl 3 10.00 Fair CLR 33.1 17.1 33.1 23 52% 29.63 1003.4
09 08:53 NE 6 10.00 A Few Clouds FEW050 30.9 15.1 52% 26 29.63 1003.5
09 07:53 W 5 10.00 Fair CLR 26.1 17.1 69% 21 29.65 1004.1
09 06:53 N 5 10.00 Fair CLR 24.1 16 71% 19 29.66 1004.5
09 05:53 W 7 10.00 Fair CLR 23 16 74% 16 29.67 1004.8
09 04:53 NW 7 10.00 Fair CLR 24.1 17.1 75% 17 29.7 1005.7
09 03:53 NW 7 10.00 Fair CLR 25 18 35.1 23 75% 18 29.72 1006.3
09 02:53 Calm 10.00 Fair CLR 26.1 21 81% 29.74 1007.0
09 01:53 E 3 10.00 Fair CLR 27 19.9 75% 29.76 1007.7
09 00:53 Calm 10.00 Fair CLR 28 21.9 78% 29.78 1008.3
08 23:53 N 8 10.00 Fair CLR 28.9 21.9 75% 22 29.79 1008.9
08 22:53 N 7 10.00 Fair CLR 30.9 23 72% 25 29.81 1009.4
08 21:53 NW 7 10.00 Fair CLR 35.1 19.9 37 32 54% 30 29.83 1010.0
08 20:53 NW 8 10.00 Fair CLR 36 18 48% 30 29.85 1010.7
08 19:53 NW 8 10.00 Fair CLR 36 19 50% 30 29.86 1011.3
08 18:53 W 10 10.00 Fair CLR 35.1 21.9 59% 28 29.89 1012.1
08 17:53 W 12 10.00 Fair CLR 34 25 70% 26 29.91 1012.9
08 16:53 W 14 10.00 Fair CLR 33.1 25 72% 24 29.94 1013.7
08 15:53 W 14 10.00 Fair CLR 33.1 24.1 33.1 28 70% 24 29.96 1014.5
08 14:53 W 13 10.00 A Few Clouds FEW100 32 24.1 73% 23 29.98 1015.2
08 13:53 W 10 10.00 Fair CLR 32 23 69% 24 29.99 1015.7
08 12:53 NW 6 10.00 Fair CLR 32 19 59% 27 30.01 1016.4
08 11:53 W 5 10.00 Fair CLR 30.9 18 59% 27 30.03 1016.9
08 10:53 N 7 10.00 Fair CLR 28.9 18 63% 23 30.05 1017.6
08 09:53 N 10 10.00 Fair CLR 28 18 28 21 66% 19 30.06 1017.8
08 08:53 N 9 10.00 Fair CLR 27 18 69% 19 30.06 1018.1
08 07:53 N 8 10.00 Fair CLR 25 17.1 72% 17 30.08 1018.5
08 06:53 N 8 10.00 Fair CLR 21.9 16 78% 13 30.09 1018.8
08 05:53 N 6 10.00 Fair CLR 21.9 16 78% 15 30.1 1019.3
08 04:53 N 6 10.00 Fair CLR 23 17.1 78% 17 30.1 1019.4
08 03:53 N 8 10.00 Mostly Cloudy BKN027 27 18 28.9 27 69% 19 30.12 1019.8
08 02:53 NE 9 10.00 Overcast OVC028 28 19 69% 20 30.12 1020.1
08 01:53 NE 8 10.00 Overcast OVC029 28 19 69% 21 30.12 1020.1
08 00:53 NE 7 10.00 Overcast OVC030 28.9 21 72% 23 30.13 1020.3
07 23:53 NW 5 10.00 Overcast OVC030 28 21.9 78% 24 30.13 1020.3
07 22:53 W 5 10.00 Overcast OVC027 28 21 75% 24 30.13 1020.4
07 21:53 W 5 10.00 Overcast OVC026 28 21.9 28.9 27 78% 24 30.14 1020.5
07 20:53 SW 7 10.00 Overcast OVC029 28 21.9 78% 22 30.13 1020.4
07 19:53 SW 6 10.00 Overcast OVC029 28 23 81% 22 30.14 1020.6
07 18:53 SW 8 10.00 A Few Clouds FEW023 28 21.9 78% 21 30.14 1020.5
07 17:53 SW 7 10.00 Partly Cloudy SCT020 28 21.9 78% 22 30.14 1020.7
07 16:53 SW 7 10.00 Partly Cloudy SCT020 28 21 75% 22 30.15 1020.8
07 15:53 SW 8 10.00 A Few Clouds FEW021 28 21 28 24.1 75% 21 30.15 1020.9
07 14:53 S 7 10.00 Fair CLR 27 21 78% 20 30.15 1021.0
07 13:53 S 7 10.00 A Few Clouds FEW019 27 19.9 75% 20 30.15 1021.0
Date Time (akdt) Wind (mph) Vis. (mi.) Weather Sky Cond. Air Dwpt Max. Min. Relative Humidity Wind Chill (°F) Heat Index (°F) altimeter (in) sea level (mb) 1 hr 3 hr 6 hr
6 hour
Temperature (ºF) Pressure Precipitation (in)